Time,TemperatureF,DewpointF,PressureIn,WindDirection,WindDirectionDegrees,WindSpeedMPH,WindSpeedGustMPH,Humidity,HourlyPrecipIn,Conditions,Clouds,dailyrainin,SoftwareType,DateUTC
2013-06-27 00:01:00,70.2,55.6,29.82,ESE,112,0.0,0.0,60,0.00,CLR,,0.00,WeatherDisplay:10.37,2013-06-27 04:01:00,
2013-06-27 00:06:00,70.0,55.5,29.81,ESE,112,0.0,0.0,60,0.00,CLR,,0.00,WeatherDisplay:10.37,2013-06-27 04:06:00,
2013-06-27 00:11:00,69.8,55.3,29.81,ESE,112,0.0,0.0,60,0.00,CLR,,0.00,WeatherDisplay:10.37,2013-06-27 04:11:00,
2013-06-27 00:16:00,69.8,55.3,29.81,ESE,112,0.0,0.0,60,0.00,CLR,,0.00,WeatherDisplay:10.37,2013-06-27 04:16:00,
2013-06-27 00:21:00,69.6,55.1,29.81,East,90,1.2,0.0,60,0.00,CLR,,0.00,WeatherDisplay:10.37,2013-06-27 04:21:00,
2013-06-27 00:26:00,69.6,55.1,29.81,East,90,1.2,1.2,60,0.00,CLR,,0.00,WeatherDisplay:10.37,2013-06-27 04:26:00,
2013-06-27 00:31:00,69.4,54.9,29.81,NNE,22,1.2,1.4,60,0.00,CLR,,0.00,WeatherDisplay:10.37,2013-06-27 04:31:00,
2013-06-27 00:36:00,69.6,55.1,29.81,NNE,22,1.2,1.2,60,0.00,CLR,,0.00,WeatherDisplay:10.37,2013-06-27 04:36:00,
2013-06-27 00:41:00,69.6,55.1,29.81,NNE,22,0.0,0.0,60,0.00,CLR,,0.00,WeatherDisplay:10.37,2013-06-27 04:41:00,
2013-06-27 00:46:00,69.6,55.1,29.81,NNE,22,0.0,0.0,60,0.00,CLR,,0.00,WeatherDisplay:10.37,2013-06-27 04:46:00,
2013-06-27 00:51:00,69.4,54.9,29.81,NNE,22,1.2,1.2,60,0.00,CLR,,0.00,WeatherDisplay:10.37,2013-06-27 04:51:00,
2013-06-27 00:56:00,69.3,54.8,29.80,NNE,22,0.0,0.0,60,0.00,CLR,,0.00,WeatherDisplay:10.37,2013-06-27 04:56:00,
2013-06-27 01:01:00,69.1,54.6,29.80,ENE,68,0.0,0.0,60,0.00,CLR,,0.00,WeatherDisplay:10.37,2013-06-27 05:01:00,
2013-06-27 01:06:00,68.9,54.4,29.80,ENE,68,0.0,0.0,60,0.00,CLR,,0.00,WeatherDisplay:10.37,2013-06-27 05:06:00,
2013-06-27 01:11:00,69.1,54.6,29.80,ENE,68,0.0,0.5,60,0.00,CLR,,0.00,WeatherDisplay:10.37,2013-06-27 05:11:00,
2013-06-27 01:16:00,68.9,54.4,29.79,ENE,68,0.0,0.0,60,0.00,CLR,,0.00,WeatherDisplay:10.37,2013-06-27 05:16:00,
2013-06-27 01:21:00,68.9,54.4,29.79,ENE,68,0.0,0.0,60,0.00,CLR,,0.00,WeatherDisplay:10.37,2013-06-27 05:21:00,
2013-06-27 01:26:00,68.7,53.8,29.79,ENE,68,0.0,0.0,59,0.00,CLR,,0.00,WeatherDisplay:10.37,2013-06-27 05:26:00,
2013-06-27 01:31:00,68.7,54.3,29.79,ENE,68,0.0,0.0,60,0.00,CLR,,0.00,WeatherDisplay:10.37,2013-06-27 05:31:00,
2013-06-27 01:36:00,68.7,54.3,29.79,ENE,68,0.0,0.0,60,0.00,CLR,,0.00,WeatherDisplay:10.37,2013-06-27 05:36:00,
2013-06-27 01:41:00,68.7,53.8,29.79,ENE,68,0.0,0.0,59,0.00,CLR,,0.00,WeatherDisplay:10.37,2013-06-27 05:41:00,
2013-06-27 01:46:00,68.7,53.8,29.79,ENE,68,0.0,0.0,59,0.00,CLR,,0.00,WeatherDisplay:10.37,2013-06-27 05:46:00,
2013-06-27 01:51:00,68.5,53.6,29.79,ENE,68,0.0,0.0,59,0.00,CLR,,0.00,WeatherDisplay:10.37,2013-06-27 05:51:00,
2013-06-27 01:56:00,68.4,53.5,29.79,ENE,68,0.0,0.0,59,0.00,CLR,,0.00,WeatherDisplay:10.37,2013-06-27 05:56:00,
2013-06-27 02:01:00,68.4,53.5,29.79,ENE,68,0.0,0.0,59,0.00,CLR,,0.00,WeatherDisplay:10.37,2013-06-27 06:01:00,
2013-06-27 02:06:00,68.4,53.5,29.79,ENE,68,0.0,0.0,59,0.00,CLR,,0.00,WeatherDisplay:10.37,2013-06-27 06:06:00,
2013-06-27 02:11:00,68.4,53.5,29.79,ENE,68,0.0,0.0,59,0.00,CLR,,0.00,WeatherDisplay:10.37,2013-06-27 06:11:00,
2013-06-27 02:16:00,68.4,53.5,29.79,ENE,68,0.0,0.0,59,0.00,CLR,,0.00,WeatherDisplay:10.37,2013-06-27 06:16:00,
2013-06-27 02:21:00,68.2,53.3,29.79,ENE,68,0.0,0.0,59,0.00,CLR,,0.00,WeatherDisplay:10.37,2013-06-27 06:21:00,
2013-06-27 02:26:00,68.0,53.1,29.79,ENE,68,0.0,0.0,59,0.00,CLR,,0.00,WeatherDisplay:10.37,2013-06-27 06:26:00,
2013-06-27 02:31:00,68.0,53.1,29.79,ENE,68,1.2,1.2,59,0.00,CLR,,0.00,WeatherDisplay:10.37,2013-06-27 06:31:00,
2013-06-27 02:36:00,68.0,53.1,29.79,ENE,68,0.0,0.0,59,0.00,CLR,,0.00,WeatherDisplay:10.37,2013-06-27 06:36:00,
2013-06-27 02:41:00,67.8,53.0,29.79,ENE,68,0.0,0.0,59,0.00,CLR,,0.00,WeatherDisplay:10.37,2013-06-27 06:41:00,
2013-06-27 02:46:00,67.8,53.0,29.77,ENE,68,1.2,1.2,59,0.00,CLR,,0.00,WeatherDisplay:10.37,2013-06-27 06:46:00,
2013-06-27 02:51:00,67.6,52.8,29.77,ENE,68,0.0,0.0,59,0.00,CLR,,0.00,WeatherDisplay:10.37,2013-06-27 06:51:00,
2013-06-27 02:56:00,67.6,52.8,29.77,ENE,68,0.0,0.0,59,0.00,CLR,,0.00,WeatherDisplay:10.37,2013-06-27 06:56:00,
2013-06-27 03:01:00,67.6,52.8,29.77,ENE,68,0.0,0.0,59,0.00,CLR,,0.00,WeatherDisplay:10.37,2013-06-27 07:01:00,
2013-06-27 03:06:00,67.6,52.8,29.79,ENE,68,0.0,0.0,59,0.00,CLR,,0.00,WeatherDisplay:10.37,2013-06-27 07:06:00,
2013-06-27 03:11:00,67.6,52.8,29.77,ENE,68,0.0,0.2,59,0.00,CLR,,0.00,WeatherDisplay:10.37,2013-06-27 07:11:00,
2013-06-27 03:16:00,67.6,52.8,29.77,ENE,68,1.2,1.2,59,0.00,CLR,,0.00,WeatherDisplay:10.37,2013-06-27 07:16:00,
2013-06-27 03:21:00,67.5,52.6,29.77,ENE,68,0.0,0.0,59,0.00,CLR,,0.00,WeatherDisplay:10.37,2013-06-27 07:21:00,
2013-06-27 03:26:00,67.5,52.6,29.77,ENE,68,1.2,1.4,59,0.00,CLR,,0.00,WeatherDisplay:10.37,2013-06-27 07:26:00,
2013-06-27 03:31:00,67.5,52.6,29.77,NNE,22,2.3,2.3,59,0.00,CLR,,0.00,WeatherDisplay:10.37,2013-06-27 07:31:00,
2013-06-27 03:36:00,67.5,52.6,29.77,NE,45,2.3,2.3,59,0.00,CLR,,0.00,WeatherDisplay:10.37,2013-06-27 07:36:00,
2013-06-27 03:41:00,67.5,52.6,29.77,NE,45,2.3,2.3,59,0.00,CLR,,0.00,WeatherDisplay:10.37,2013-06-27 07:41:00,
2013-06-27 03:46:00,67.3,52.5,29.77,North,0,2.3,0.0,59,0.00,CLR,,0.00,WeatherDisplay:10.37,2013-06-27 07:46:00,
2013-06-27 03:51:00,66.9,52.1,29.79,ENE,68,1.2,1.4,59,0.00,CLR,,0.00,WeatherDisplay:10.37,2013-06-27 07:51:00,
2013-06-27 03:56:00,66.7,52.0,29.77,East,90,3.5,0.0,59,0.00,CLR,,0.00,WeatherDisplay:10.37,2013-06-27 07:56:00,
2013-06-27 04:01:00,66.7,52.0,29.77,ENE,68,2.3,2.3,59,0.00,CLR,,0.00,WeatherDisplay:10.37,2013-06-27 08:01:00,
2013-06-27 04:06:00,66.6,51.8,29.77,NNE,22,1.2,1.2,59,0.00,CLR,,0.00,WeatherDisplay:10.37,2013-06-27 08:06:00,
2013-06-27 04:11:00,66.6,51.8,29.77,North,0,3.5,3.5,59,0.00,CLR,,0.00,WeatherDisplay:10.37,2013-06-27 08:11:00,
2013-06-27 04:16:00,66.6,51.8,29.77,NE,45,2.3,2.3,59,0.00,CLR,,0.00,WeatherDisplay:10.37,2013-06-27 08:16:00,
2013-06-27 04:21:00,66.6,51.8,29.79,ENE,68,3.5,3.5,59,0.00,CLR,,0.00,WeatherDisplay:10.37,2013-06-27 08:21:00,
2013-06-27 04:26:00,66.6,51.8,29.79,ENE,68,1.2,1.2,59,0.00,CLR,,0.00,WeatherDisplay:10.37,2013-06-27 08:26:00,
2013-06-27 04:32:00,66.4,51.6,29.79,North,0,2.3,2.3,59,0.00,CLR,,0.00,WeatherDisplay:10.37,2013-06-27 08:32:00,
2013-06-27 04:37:00,66.2,51.4,29.79,ENE,68,4.6,4.6,59,0.00,CLR,,0.00,WeatherDisplay:10.37,2013-06-27 08:37:00,
2013-06-27 04:42:00,66.2,51.4,29.79,NE,45,2.3,2.4,59,0.00,CLR,,0.00,WeatherDisplay:10.37,2013-06-27 08:42:00,
2013-06-27 04:47:00,66.2,51.4,29.79,NE,45,2.3,4.7,59,0.00,CLR,,0.00,WeatherDisplay:10.37,2013-06-27 08:47:00,
2013-06-27 04:52:00,66.0,51.3,29.79,NNE,22,2.3,2.3,59,0.00,CLR,,0.00,WeatherDisplay:10.37,2013-06-27 08:52:00,
2013-06-27 04:57:00,66.0,51.3,29.80,North,0,3.5,3.5,59,0.00,CLR,,0.00,WeatherDisplay:10.37,2013-06-27 08:57:00,
2013-06-27 05:02:00,65.8,51.1,29.80,NNE,22,2.3,2.3,59,0.00,CLR,,0.00,WeatherDisplay:10.37,2013-06-27 09:02:00,
2013-06-27 05:07:00,65.8,51.1,29.80,ENE,68,2.3,3.6,59,0.00,CLR,,0.00,WeatherDisplay:10.37,2013-06-27 09:07:00,
2013-06-27 05:12:00,65.8,51.1,29.80,NE,45,2.3,3.6,59,0.00,CLR,,0.00,WeatherDisplay:10.37,2013-06-27 09:12:00,
2013-06-27 05:17:00,65.7,50.5,29.80,ENE,68,2.3,2.3,58,0.00,CLR,,0.00,WeatherDisplay:10.37,2013-06-27 09:17:00,
2013-06-27 05:22:00,65.8,50.6,29.80,NNE,22,2.3,2.3,58,0.00,CLR,,0.00,WeatherDisplay:10.37,2013-06-27 09:22:00,
2013-06-27 05:27:00,65.7,50.5,29.80,East,90,1.2,0.0,58,0.00,CLR,,0.00,WeatherDisplay:10.37,2013-06-27 09:27:00,
2013-06-27 05:32:00,65.7,50.5,29.80,SE,135,2.3,2.3,58,0.00,CLR,,0.00,WeatherDisplay:10.37,2013-06-27 09:32:00,
2013-06-27 05:37:00,65.7,50.5,29.80,ESE,112,1.2,1.2,58,0.00,CLR,,0.00,WeatherDisplay:10.37,2013-06-27 09:37:00,
2013-06-27 05:42:00,65.8,50.6,29.80,ENE,68,4.6,4.6,58,0.00,CLR,,0.00,WeatherDisplay:10.37,2013-06-27 09:42:00,
2013-06-27 05:47:00,65.8,50.6,29.80,ESE,112,2.3,2.9,58,0.00,CLR,,0.00,WeatherDisplay:10.37,2013-06-27 09:47:00,
2013-06-27 05:52:00,65.8,50.6,29.80,ENE,68,2.3,2.4,58,0.00,CLR,,0.00,WeatherDisplay:10.37,2013-06-27 09:52:00,
2013-06-27 05:57:00,65.8,50.6,29.80,ENE,68,2.3,2.9,58,0.00,CLR,,0.00,WeatherDisplay:10.37,2013-06-27 09:57:00,
2013-06-27 06:02:00,65.8,50.6,29.80,ESE,112,1.2,1.2,58,0.00,CLR,,0.00,WeatherDisplay:10.37,2013-06-27 10:02:00,
2013-06-27 06:07:00,65.8,50.6,29.80,NNE,22,2.3,2.3,58,0.00,CLR,,0.00,WeatherDisplay:10.37,2013-06-27 10:07:00,
2013-06-27 06:12:00,65.8,50.6,29.80,North,0,1.2,1.2,58,0.00,CLR,,0.00,WeatherDisplay:10.37,2013-06-27 10:12:00,
2013-06-27 06:17:00,65.8,50.6,29.80,ENE,68,2.3,2.3,58,0.00,CLR,,0.00,WeatherDisplay:10.37,2013-06-27 10:17:00,
2013-06-27 06:22:00,66.0,50.8,29.80,NE,45,2.3,2.3,58,0.00,CLR,,0.00,WeatherDisplay:10.37,2013-06-27 10:22:00,
2013-06-27 06:27:00,65.8,50.6,29.80,East,90,2.3,2.3,58,0.00,CLR,,0.00,WeatherDisplay:10.37,2013-06-27 10:27:00,
2013-06-27 06:32:00,65.8,50.6,29.80,NNE,22,1.2,1.4,58,0.00,CLR,,0.00,WeatherDisplay:10.37,2013-06-27 10:32:00,
2013-06-27 06:37:00,66.0,50.8,29.80,SE,135,1.2,1.6,58,0.00,CLR,,0.00,WeatherDisplay:10.37,2013-06-27 10:37:00,
2013-06-27 06:42:00,66.0,50.8,29.80,SE,135,1.2,1.6,58,0.00,CLR,,0.00,WeatherDisplay:10.37,2013-06-27 10:42:00,
2013-06-27 06:47:00,66.2,51.0,29.80,SE,135,2.3,2.4,58,0.00,CLR,,0.00,WeatherDisplay:10.37,2013-06-27 10:47:00,
2013-06-27 06:52:00,66.2,51.0,29.80,ENE,68,0.0,0.5,58,0.00,CLR,,0.00,WeatherDisplay:10.37,2013-06-27 10:52:00,
2013-06-27 06:57:00,66.2,51.0,29.80,ESE,112,1.2,1.2,58,0.00,CLR,,0.00,WeatherDisplay:10.37,2013-06-27 10:57:00,
2013-06-27 07:02:00,66.2,51.0,29.81,SE,135,3.5,3.5,58,0.00,CLR,,0.00,WeatherDisplay:10.37,2013-06-27 11:02:00,
2013-06-27 07:07:00,66.2,51.0,29.81,ENE,68,1.2,1.2,58,0.00,CLR,,0.00,WeatherDisplay:10.37,2013-06-27 11:07:00,
2013-06-27 07:12:00,66.2,51.0,29.81,ENE,68,2.3,2.3,58,0.00,CLR,,0.00,WeatherDisplay:10.37,2013-06-27 11:12:00,
2013-06-27 07:17:00,66.2,51.0,29.82,SSE,158,3.5,3.5,58,0.00,CLR,,0.00,WeatherDisplay:10.37,2013-06-27 11:17:00,
2013-06-27 07:22:00,66.2,51.0,29.82,ENE,68,2.3,2.3,58,0.00,CLR,,0.00,WeatherDisplay:10.37,2013-06-27 11:22:00,
2013-06-27 07:27:00,66.2,51.0,29.82,NE,45,1.2,1.2,58,0.00,CLR,,0.00,WeatherDisplay:10.37,2013-06-27 11:27:00,
2013-06-27 07:32:00,66.2,51.0,29.82,ENE,68,3.5,3.5,58,0.00,CLR,,0.00,WeatherDisplay:10.37,2013-06-27 11:32:00,
2013-06-27 07:37:00,66.2,51.0,29.83,NE,45,2.3,2.3,58,0.00,CLR,,0.00,WeatherDisplay:10.37,2013-06-27 11:37:00,
2013-06-27 07:42:00,66.2,51.0,29.82,NE,45,2.3,2.3,58,0.00,CLR,,0.00,WeatherDisplay:10.37,2013-06-27 11:42:00,
2013-06-27 07:47:00,66.0,50.8,29.82,SSE,158,2.3,2.3,58,0.00,CLR,,0.00,WeatherDisplay:10.37,2013-06-27 11:47:00,
2013-06-27 07:52:00,66.0,50.8,29.82,East,90,0.0,0.0,58,0.00,CLR,,0.00,WeatherDisplay:10.37,2013-06-27 11:52:00,
2013-06-27 07:57:00,66.2,51.0,29.82,ENE,68,1.2,1.6,58,0.00,CLR,,0.00,WeatherDisplay:10.37,2013-06-27 11:57:00,
2013-06-27 08:02:00,66.2,51.0,29.82,NE,45,1.2,1.2,58,0.00,CLR,,0.00,WeatherDisplay:10.37,2013-06-27 12:02:00,
2013-06-27 08:07:00,66.2,51.0,29.82,NNE,22,1.2,1.2,58,0.00,CLR,,0.00,WeatherDisplay:10.37,2013-06-27 12:07:00,
2013-06-27 08:12:00,66.2,51.0,29.82,ESE,112,1.2,1.2,58,0.00,CLR,,0.00,WeatherDisplay:10.37,2013-06-27 12:12:00,
2013-06-27 08:17:00,66.4,51.2,29.82,NNE,22,4.6,5.2,58,0.00,CLR,,0.00,WeatherDisplay:10.37,2013-06-27 12:17:00,
2013-06-27 08:22:00,66.2,51.0,29.82,SE,135,2.3,2.3,58,0.00,CLR,,0.00,WeatherDisplay:10.37,2013-06-27 12:22:00,
2013-06-27 08:27:00,66.2,51.0,29.82,ENE,68,2.3,2.4,58,0.00,CLR,,0.00,WeatherDisplay:10.37,2013-06-27 12:27:00,
2013-06-27 08:32:00,66.4,50.7,29.82,ENE,68,2.3,2.3,57,0.00,CLR,,0.00,WeatherDisplay:10.37,2013-06-27 12:32:00,
2013-06-27 08:37:00,66.4,50.7,29.82,ENE,68,4.6,4.6,57,0.00,CLR,,0.00,WeatherDisplay:10.37,2013-06-27 12:37:00,
2013-06-27 08:42:00,66.6,50.8,29.82,ESE,112,3.5,3.5,57,0.00,CLR,,0.00,WeatherDisplay:10.37,2013-06-27 12:42:00,
2013-06-27 08:47:00,66.6,50.8,29.82,SE,135,1.2,1.2,57,0.00,CLR,,0.00,WeatherDisplay:10.37,2013-06-27 12:47:00,
2013-06-27 08:52:00,66.6,50.8,29.81,NE,45,1.2,1.2,57,0.00,CLR,,0.00,WeatherDisplay:10.37,2013-06-27 12:52:00,
2013-06-27 08:57:00,66.9,51.2,29.82,SE,135,1.2,1.6,57,0.00,CLR,,0.00,WeatherDisplay:10.37,2013-06-27 12:57:00,
2013-06-27 09:02:00,67.1,51.4,29.82,ENE,68,1.2,1.2,57,0.00,CLR,,0.00,WeatherDisplay:10.37,2013-06-27 13:02:00,
2013-06-27 09:07:00,67.3,51.5,29.82,ENE,68,1.2,1.4,57,0.00,CLR,,0.00,WeatherDisplay:10.37,2013-06-27 13:07:00,
2013-06-27 09:12:00,67.3,51.5,29.81,ESE,112,2.3,2.3,57,0.00,CLR,,0.00,WeatherDisplay:10.37,2013-06-27 13:12:00,
2013-06-27 09:17:00,67.5,51.7,29.81,NE,45,2.3,2.4,57,0.00,CLR,,0.00,WeatherDisplay:10.37,2013-06-27 13:17:00,
2013-06-27 09:22:00,67.5,51.7,29.81,NNE,22,1.6,1.6,57,0.00,CLR,,0.00,WeatherDisplay:10.37,2013-06-27 13:22:00,
2013-06-27 09:27:00,67.5,51.7,29.80,SE,135,1.8,1.8,57,0.00,CLR,,0.00,WeatherDisplay:10.37,2013-06-27 13:27:00,
2013-06-27 09:32:00,67.6,51.9,29.80,ENE,68,4.6,4.6,57,0.00,CLR,,0.00,WeatherDisplay:10.37,2013-06-27 13:32:00,
2013-06-27 09:38:00,67.8,52.0,29.81,East,90,1.2,1.2,57,0.00,CLR,,0.00,WeatherDisplay:10.37,2013-06-27 13:38:00,
2013-06-27 09:43:00,68.0,52.2,29.81,ESE,112,0.5,0.5,57,0.00,CLR,,0.00,WeatherDisplay:10.37,2013-06-27 13:43:00,
2013-06-27 09:48:00,68.2,52.8,29.81,SSE,158,5.8,5.8,58,0.00,CLR,,0.00,WeatherDisplay:10.37,2013-06-27 13:48:00,
2013-06-27 09:53:00,68.2,52.8,29.81,East,90,2.3,2.3,58,0.00,CLR,,0.00,WeatherDisplay:10.37,2013-06-27 13:53:00,
2013-06-27 09:58:00,68.7,53.3,29.81,ESE,112,5.8,5.8,58,0.00,CLR,,0.00,WeatherDisplay:10.37,2013-06-27 13:58:00,
2013-06-27 10:03:00,69.1,53.7,29.81,East,90,3.5,3.5,58,0.00,CLR,,0.00,WeatherDisplay:10.37,2013-06-27 14:03:00,
2013-06-27 10:08:00,69.3,53.8,29.81,ENE,68,3.5,3.5,58,0.00,CLR,,0.00,WeatherDisplay:10.37,2013-06-27 14:08:00,
2013-06-27 10:13:00,69.6,54.2,29.81,NNE,22,2.3,3.3,58,0.00,CLR,,0.00,WeatherDisplay:10.37,2013-06-27 14:13:00,
2013-06-27 10:18:00,69.8,54.4,29.80,ENE,68,3.5,0.0,58,0.00,CLR,,0.00,WeatherDisplay:10.37,2013-06-27 14:18:00,
2013-06-27 10:23:00,70.0,54.5,29.80,East,90,1.2,1.2,58,0.00,CLR,,0.00,WeatherDisplay:10.37,2013-06-27 14:23:00,
2013-06-27 10:28:00,70.2,55.2,29.80,North,0,4.6,4.6,59,0.00,CLR,,0.00,WeatherDisplay:10.37,2013-06-27 14:28:00,
2013-06-27 10:33:00,70.0,55.0,29.80,NW,315,4.6,4.6,59,0.00,CLR,,0.00,WeatherDisplay:10.37,2013-06-27 14:33:00,
2013-06-27 10:38:00,70.0,55.0,29.80,NE,45,1.2,1.2,59,0.00,CLR,,0.00,WeatherDisplay:10.37,2013-06-27 14:38:00,
2013-06-27 10:43:00,70.2,55.2,29.80,ENE,68,2.3,2.6,59,0.00,CLR,,0.00,WeatherDisplay:10.37,2013-06-27 14:43:00,
2013-06-27 10:48:00,70.2,55.2,29.80,NNE,22,3.5,3.5,59,0.00,CLR,,0.00,WeatherDisplay:10.37,2013-06-27 14:48:00,
2013-06-27 10:53:00,70.2,55.2,29.80,NW,315,1.2,1.2,59,0.00,CLR,,0.00,WeatherDisplay:10.37,2013-06-27 14:53:00,
2013-06-27 10:58:00,70.3,55.3,29.79,ENE,68,1.2,1.4,59,0.00,CLR,,0.00,WeatherDisplay:10.37,2013-06-27 14:58:00,
2013-06-27 11:03:00,70.5,55.5,29.79,NE,45,4.6,4.6,59,0.00,CLR,,0.00,WeatherDisplay:10.37,2013-06-27 15:03:00,
2013-06-27 11:08:00,70.5,55.5,29.79,North,0,2.3,2.3,59,0.00,CLR,,0.00,WeatherDisplay:10.37,2013-06-27 15:08:00,
2013-06-27 11:13:00,70.7,55.7,29.79,NNW,338,0.0,0.5,59,0.00,CLR,,0.00,WeatherDisplay:10.37,2013-06-27 15:13:00,
2013-06-27 11:18:00,71.6,57.0,29.79,ENE,68,1.2,1.2,60,0.00,CLR,,0.00,WeatherDisplay:10.37,2013-06-27 15:18:00,
2013-06-27 11:23:00,72.3,57.7,29.79,East,90,2.3,2.3,60,0.00,CLR,,0.00,WeatherDisplay:10.37,2013-06-27 15:23:00,
2013-06-27 11:28:00,72.9,57.7,29.79,ENE,68,0.0,0.5,59,0.00,CLR,,0.00,WeatherDisplay:10.37,2013-06-27 15:28:00,
2013-06-27 11:33:00,74.3,59.5,29.79,NE,45,5.8,5.8,60,0.00,CLR,,0.00,WeatherDisplay:10.37,2013-06-27 15:33:00,
2013-06-27 11:38:00,75.6,60.2,29.77,NE,45,2.3,2.3,59,0.00,CLR,,0.00,WeatherDisplay:10.37,2013-06-27 15:38:00,
2013-06-27 11:43:00,76.3,60.4,29.77,ESE,112,4.6,4.6,58,0.00,CLR,,0.00,WeatherDisplay:10.37,2013-06-27 15:43:00,
2013-06-27 11:48:00,77.0,61.1,29.79,SSE,158,6.9,6.9,58,0.00,CLR,,0.00,WeatherDisplay:10.37,2013-06-27 15:48:00,
2013-06-27 11:53:00,77.4,61.4,29.79,SE,135,4.6,4.6,58,0.00,CLR,,0.00,WeatherDisplay:10.37,2013-06-27 15:53:00,
2013-06-27 11:58:00,77.7,61.8,29.79,East,90,4.6,4.7,58,0.00,CLR,,0.00,WeatherDisplay:10.37,2013-06-27 15:58:00,
2013-06-27 12:03:00,78.6,62.6,29.77,SE,135,2.3,2.3,58,0.00,CLR,,0.00,WeatherDisplay:10.37,2013-06-27 16:03:00,
2013-06-27 12:08:00,79.0,62.4,29.79,ESE,112,2.3,2.3,57,0.00,CLR,,0.00,WeatherDisplay:10.37,2013-06-27 16:08:00,
2013-06-27 12:13:00,79.0,62.4,29.79,ENE,68,4.6,4.6,57,0.00,CLR,,0.00,WeatherDisplay:10.37,2013-06-27 16:13:00,
2013-06-27 12:18:00,78.3,62.3,29.79,ESE,112,2.3,2.3,58,0.00,CLR,,0.00,WeatherDisplay:10.37,2013-06-27 16:18:00,
2013-06-27 12:23:00,77.5,61.6,29.79,SSE,158,2.3,2.3,58,0.00,CLR,,0.00,WeatherDisplay:10.37,2013-06-27 16:23:00,
2013-06-27 12:28:00,76.3,60.4,29.77,SE,135,4.6,4.6,58,0.00,CLR,,0.00,WeatherDisplay:10.37,2013-06-27 16:28:00,
2013-06-27 12:33:00,75.9,60.1,29.77,ESE,112,2.3,2.3,58,0.00,CLR,,0.00,WeatherDisplay:10.37,2013-06-27 16:33:00,
2013-06-27 12:38:00,76.3,60.4,29.77,ESE,112,2.3,2.3,58,0.00,CLR,,0.00,WeatherDisplay:10.37,2013-06-27 16:38:00,
2013-06-27 12:43:00,76.8,60.9,29.79,SSE,158,2.3,2.3,58,0.00,CLR,,0.00,WeatherDisplay:10.37,2013-06-27 16:43:00,
2013-06-27 12:48:00,76.8,60.9,29.79,SE,135,1.2,1.6,58,0.00,CLR,,0.00,WeatherDisplay:10.37,2013-06-27 16:48:00,
2013-06-27 12:53:00,77.0,61.1,29.79,SSE,158,1.2,1.4,58,0.00,CLR,,0.00,WeatherDisplay:10.37,2013-06-27 16:53:00,
2013-06-27 12:58:00,76.6,60.8,29.79,South,180,4.6,4.6,58,0.00,CLR,,0.00,WeatherDisplay:10.37,2013-06-27 16:58:00,
2013-06-27 13:03:00,76.1,60.2,29.79,South,180,2.3,2.3,58,0.00,CLR,,0.00,WeatherDisplay:10.37,2013-06-27 17:03:00,
2013-06-27 13:08:00,75.9,60.1,29.77,SE,135,2.3,2.4,58,0.00,CLR,,0.00,WeatherDisplay:10.37,2013-06-27 17:08:00,
2013-06-27 13:13:00,76.1,60.2,29.77,SSW,202,1.2,1.6,58,0.00,CLR,,0.00,WeatherDisplay:10.37,2013-06-27 17:13:00,
2013-06-27 13:18:00,75.7,59.9,29.77,South,180,2.3,2.3,58,0.00,CLR,,0.00,WeatherDisplay:10.37,2013-06-27 17:18:00,
2013-06-27 13:23:00,75.7,59.9,29.77,SE,135,2.3,2.3,58,0.00,CLR,,0.00,WeatherDisplay:10.37,2013-06-27 17:23:00,
2013-06-27 13:28:00,75.7,59.9,29.77,SSE,158,2.3,2.3,58,0.00,CLR,,0.00,WeatherDisplay:10.37,2013-06-27 17:28:00,
2013-06-27 13:33:00,75.4,60.1,29.77,ESE,112,3.5,3.5,59,0.00,CLR,,0.00,WeatherDisplay:10.37,2013-06-27 17:33:00,
2013-06-27 13:38:00,75.4,60.1,29.77,North,0,2.3,2.3,59,0.00,CLR,,0.00,WeatherDisplay:10.37,2013-06-27 17:38:00,
2013-06-27 13:43:00,75.2,59.9,29.77,SW,225,1.2,1.2,59,0.00,CLR,,0.00,WeatherDisplay:10.37,2013-06-27 17:43:00,
2013-06-27 13:48:00,75.0,59.7,29.77,SE,135,2.3,2.3,59,0.00,CLR,,0.00,WeatherDisplay:10.37,2013-06-27 17:48:00,
2013-06-27 13:53:00,74.8,59.5,29.77,SSE,158,1.2,1.2,59,0.00,CLR,,0.00,WeatherDisplay:10.37,2013-06-27 17:53:00,
2013-06-27 13:58:00,74.5,59.2,29.77,ESE,112,1.4,1.4,59,0.00,CLR,,0.00,WeatherDisplay:10.37,2013-06-27 17:58:00,
2013-06-27 14:03:00,74.5,59.2,29.77,East,90,1.2,0.0,59,0.00,CLR,,0.00,WeatherDisplay:10.37,2013-06-27 18:03:00,
2013-06-27 14:08:00,74.3,59.0,29.77,South,180,1.2,1.2,59,0.00,CLR,,0.00,WeatherDisplay:10.37,2013-06-27 18:08:00,
2013-06-27 14:14:00,74.1,58.9,29.77,ESE,112,2.2,2.2,59,0.00,CLR,,0.00,WeatherDisplay:10.37,2013-06-27 18:14:00,
2013-06-27 14:19:00,73.8,58.5,29.77,SE,135,3.5,3.5,59,0.00,CLR,,0.00,WeatherDisplay:10.37,2013-06-27 18:19:00,
2013-06-27 14:24:00,73.6,58.4,29.77,South,180,1.2,1.2,59,0.00,CLR,,0.00,WeatherDisplay:10.37,2013-06-27 18:24:00,
2013-06-27 14:29:00,73.4,58.2,29.77,ESE,112,1.2,1.2,59,0.00,CLR,,0.00,WeatherDisplay:10.37,2013-06-27 18:29:00,
2013-06-27 14:34:00,73.0,57.9,29.77,ESE,112,0.0,1.6,59,0.00,CLR,,0.00,WeatherDisplay:10.37,2013-06-27 18:34:00,
2013-06-27 14:39:00,73.0,57.9,29.77,SSE,158,0.0,3.3,59,0.00,CLR,,0.00,WeatherDisplay:10.37,2013-06-27 18:39:00,
2013-06-27 14:44:00,73.0,57.9,29.77,SE,135,3.5,3.5,59,0.00,CLR,,0.00,WeatherDisplay:10.37,2013-06-27 18:44:00,
2013-06-27 14:49:00,73.2,58.0,29.77,North,0,1.2,1.2,59,0.00,CLR,,0.00,WeatherDisplay:10.37,2013-06-27 18:49:00,
2013-06-27 14:54:00,73.4,58.2,29.77,SE,135,1.2,1.2,59,0.00,CLR,,0.00,WeatherDisplay:10.37,2013-06-27 18:54:00,
2013-06-27 14:59:00,73.6,58.4,29.76,SE,135,2.3,2.3,59,0.00,CLR,,0.00,WeatherDisplay:10.37,2013-06-27 18:59:00,
2013-06-27 15:04:00,73.8,58.5,29.76,SSE,158,1.2,1.4,59,0.00,CLR,,0.00,WeatherDisplay:10.37,2013-06-27 19:04:00,
2013-06-27 15:09:00,73.6,58.4,29.77,SSE,158,1.2,1.2,59,0.00,CLR,,0.00,WeatherDisplay:10.37,2013-06-27 19:09:00,
2013-06-27 15:14:00,73.0,57.9,29.77,SSE,158,2.3,2.3,59,0.00,CLR,,0.00,WeatherDisplay:10.37,2013-06-27 19:14:00,
2013-06-27 15:19:00,72.7,58.0,29.76,SSW,202,2.3,2.3,60,0.00,CLR,,0.00,WeatherDisplay:10.37,2013-06-27 19:19:00,
2013-06-27 15:24:00,72.0,57.3,29.76,SE,135,2.3,2.3,60,0.00,CLR,,0.00,WeatherDisplay:10.37,2013-06-27 19:24:00,
2013-06-27 15:29:00,71.8,57.1,29.76,SSE,158,1.2,1.2,60,0.00,CLR,,0.00,WeatherDisplay:10.37,2013-06-27 19:29:00,
2013-06-27 15:34:00,71.8,57.1,29.76,South,180,1.2,1.2,60,0.00,CLR,,0.00,WeatherDisplay:10.37,2013-06-27 19:34:00,
2013-06-27 15:39:00,71.6,57.0,29.76,SSE,158,1.2,1.2,60,0.00,CLR,,0.00,WeatherDisplay:10.37,2013-06-27 19:39:00,
2013-06-27 15:44:00,71.8,57.1,29.76,SSE,158,1.2,1.2,60,0.00,CLR,,0.00,WeatherDisplay:10.37,2013-06-27 19:44:00,
2013-06-27 15:49:00,72.1,57.5,29.76,SSE,158,1.2,1.2,60,0.00,CLR,,0.00,WeatherDisplay:10.37,2013-06-27 19:49:00,
2013-06-27 15:54:00,72.3,57.7,29.76,SE,135,1.2,0.0,60,0.00,CLR,,0.00,WeatherDisplay:10.37,2013-06-27 19:54:00,
2013-06-27 15:59:00,72.5,57.8,29.76,SE,135,0.0,0.5,60,0.00,CLR,,0.00,WeatherDisplay:10.37,2013-06-27 19:59:00,
2013-06-27 16:04:00,72.9,58.2,29.77,SSE,158,1.2,1.2,60,0.00,CLR,,0.00,WeatherDisplay:10.37,2013-06-27 20:04:00,
2013-06-27 16:09:00,73.0,58.3,29.76,SSE,158,2.3,2.3,60,0.00,CLR,,0.00,WeatherDisplay:10.37,2013-06-27 20:09:00,
2013-06-27 16:14:00,72.9,58.2,29.76,SSE,158,1.2,1.2,60,0.00,CLR,,0.00,WeatherDisplay:10.37,2013-06-27 20:14:00,
2013-06-27 16:19:00,73.0,58.3,29.75,South,180,1.2,1.2,60,0.00,CLR,,0.00,WeatherDisplay:10.37,2013-06-27 20:19:00,
2013-06-27 16:24:00,73.0,58.3,29.76,SSW,202,2.3,2.3,60,0.00,CLR,,0.00,WeatherDisplay:10.37,2013-06-27 20:24:00,
2013-06-27 16:30:00,72.9,58.2,29.76,SSW,195,1.0,3.0,60,0.00,CLR,,0.00,WeatherDisplay:10.37,2013-06-27 20:30:00,
2013-06-27 16:35:00,72.7,58.0,29.75,South,180,2.3,2.3,60,0.00,CLR,,0.00,WeatherDisplay:10.37,2013-06-27 20:35:00,
2013-06-27 16:40:00,72.6,58.0,29.75,SSW,192,2.0,3.0,60,0.00,CLR,,0.00,WeatherDisplay:10.37,2013-06-27 20:40:00,
2013-06-27 16:45:00,72.3,57.7,29.75,SSW,202,2.3,2.3,60,0.00,CLR,,0.00,WeatherDisplay:10.37,2013-06-27 20:45:00,
2013-06-27 16:50:00,72.3,57.7,29.75,SSW,202,1.2,1.6,60,0.00,CLR,,0.00,WeatherDisplay:10.37,2013-06-27 20:50:00,
2013-06-27 16:56:00,72.7,58.0,29.75,SSE,158,1.2,1.4,60,0.00,CLR,,0.00,WeatherDisplay:10.37,2013-06-27 20:56:00,
2013-06-27 17:01:00,72.9,58.2,29.75,SSW,202,0.0,0.2,60,0.00,CLR,,0.00,WeatherDisplay:10.37,2013-06-27 21:01:00,
2013-06-27 17:06:00,73.0,58.3,29.75,SW,225,1.2,1.4,60,0.00,CLR,,0.00,WeatherDisplay:10.37,2013-06-27 21:06:00,
2013-06-27 17:11:00,73.0,58.3,29.74,SW,225,0.0,0.2,60,0.00,CLR,,0.00,WeatherDisplay:10.37,2013-06-27 21:11:00,
2013-06-27 17:17:00,72.7,58.0,29.74,SSW,202,0.0,0.5,60,0.00,CLR,,0.00,WeatherDisplay:10.37,2013-06-27 21:17:00,
2013-06-27 17:22:00,73.0,58.3,29.74,SSW,202,1.2,1.2,60,0.00,CLR,,0.00,WeatherDisplay:10.37,2013-06-27 21:22:00,
2013-06-27 17:27:00,73.0,58.3,29.74,South,180,2.3,2.4,60,0.00,CLR,,0.00,WeatherDisplay:10.37,2013-06-27 21:27:00,
2013-06-27 17:33:00,72.9,58.2,29.74,South,180,1.2,1.2,60,0.00,CLR,,0.00,WeatherDisplay:10.37,2013-06-27 21:33:00,
2013-06-27 17:38:00,72.7,58.0,29.74,SSE,158,1.2,1.4,60,0.00,CLR,,0.00,WeatherDisplay:10.37,2013-06-27 21:38:00,
2013-06-27 17:44:00,72.5,57.8,29.74,SSE,158,0.0,0.5,60,0.00,CLR,,0.00,WeatherDisplay:10.37,2013-06-27 21:44:00,
2013-06-27 17:49:00,72.3,57.7,29.74,SSE,158,1.2,0.0,60,0.00,CLR,,0.00,WeatherDisplay:10.37,2013-06-27 21:49:00,
2013-06-27 17:54:00,72.0,57.3,29.74,SSE,158,0.0,0.0,60,0.00,CLR,,0.00,WeatherDisplay:10.37,2013-06-27 21:54:00,
2013-06-27 18:00:00,71.8,57.1,29.74,SSE,158,0.0,0.5,60,0.00,CLR,,0.00,WeatherDisplay:10.37,2013-06-27 22:00:00,
2013-06-27 18:05:00,71.8,57.1,29.74,SSE,158,0.0,0.0,60,0.00,CLR,,0.00,WeatherDisplay:10.37,2013-06-27 22:05:00,
2013-06-27 18:10:00,71.6,57.0,29.74,SE,135,0.0,0.0,60,0.00,CLR,,0.00,WeatherDisplay:10.37,2013-06-27 22:10:00,
2013-06-27 18:15:00,71.6,57.0,29.74,SSE,158,1.2,1.2,60,0.00,CLR,,0.00,WeatherDisplay:10.37,2013-06-27 22:15:00,
2013-06-27 18:21:00,71.8,57.1,29.74,SE,135,1.2,1.2,60,0.00,CLR,,0.00,WeatherDisplay:10.37,2013-06-27 22:21:00,
2013-06-27 18:26:00,71.6,57.0,29.74,SSE,158,1.2,1.2,60,0.00,CLR,,0.00,WeatherDisplay:10.37,2013-06-27 22:26:00,
2013-06-27 18:31:00,71.6,57.0,29.74,South,180,1.4,1.4,60,0.00,CLR,,0.00,WeatherDisplay:10.37,2013-06-27 22:31:00,
2013-06-27 18:36:00,71.6,57.0,29.74,SSE,158,1.2,1.2,60,0.00,CLR,,0.00,WeatherDisplay:10.37,2013-06-27 22:36:00,
2013-06-27 18:41:00,71.6,57.0,29.74,SSE,158,1.2,1.2,60,0.00,CLR,,0.00,WeatherDisplay:10.37,2013-06-27 22:41:00,
2013-06-27 18:46:00,71.4,56.8,29.74,SSE,158,1.2,1.2,60,0.00,CLR,,0.00,WeatherDisplay:10.37,2013-06-27 22:46:00,
2013-06-27 18:51:00,71.2,56.6,29.74,SSW,202,1.2,1.2,60,0.00,CLR,,0.00,WeatherDisplay:10.37,2013-06-27 22:51:00,
2013-06-27 18:56:00,71.1,56.5,29.74,SSW,202,1.2,0.0,60,0.00,CLR,,0.00,WeatherDisplay:10.37,2013-06-27 22:56:00,
2013-06-27 19:02:00,70.9,55.8,29.74,SE,135,1.2,1.2,59,0.00,CLR,,0.00,WeatherDisplay:10.37,2013-06-27 23:02:00,
2013-06-27 19:08:00,70.9,55.8,29.74,SSE,158,0.0,0.5,59,0.00,CLR,,0.00,WeatherDisplay:10.37,2013-06-27 23:08:00,
2013-06-27 19:14:00,70.5,55.5,29.74,SSW,202,1.2,1.2,59,0.00,CLR,,0.00,WeatherDisplay:10.37,2013-06-27 23:14:00,
2013-06-27 19:20:00,70.3,55.3,29.74,SSW,200,1.0,2.0,59,0.00,CLR,,0.00,WeatherDisplay:10.37,2013-06-27 23:20:00,
2013-06-27 19:25:00,70.0,55.5,29.74,SSW,202,1.2,1.2,60,0.00,CLR,,0.00,WeatherDisplay:10.37,2013-06-27 23:25:00,
2013-06-27 19:30:00,69.8,55.3,29.74,SSW,202,1.2,1.2,60,0.00,CLR,,0.00,WeatherDisplay:10.37,2013-06-27 23:30:00,
2013-06-27 19:36:00,69.8,55.3,29.74,SSE,158,0.0,0.5,60,0.00,CLR,,0.00,WeatherDisplay:10.37,2013-06-27 23:36:00,
2013-06-27 19:41:00,69.6,55.1,29.74,SE,135,0.0,0.0,60,0.00,CLR,,0.00,WeatherDisplay:10.37,2013-06-27 23:41:00,
2013-06-27 19:46:00,69.4,54.9,29.74,SSW,202,1.2,1.4,60,0.00,CLR,,0.00,WeatherDisplay:10.37,2013-06-27 23:46:00,
2013-06-27 19:51:00,69.3,54.8,29.74,SSW,202,2.3,2.3,60,0.00,CLR,,0.00,WeatherDisplay:10.37,2013-06-27 23:51:00,
2013-06-27 19:56:00,69.1,54.6,29.74,SSW,202,1.2,1.2,60,0.00,CLR,,0.00,WeatherDisplay:10.37,2013-06-27 23:56:00,
2013-06-27 20:02:00,68.5,54.1,29.74,SSW,202,1.2,1.2,60,0.00,CLR,,0.00,WeatherDisplay:10.37,2013-06-28 00:02:00,
2013-06-27 20:07:00,68.2,53.8,29.74,SSW,202,1.2,1.4,60,0.00,CLR,,0.00,WeatherDisplay:10.37,2013-06-28 00:07:00,
2013-06-27 20:12:00,67.8,53.4,29.74,South,180,1.2,1.2,60,0.00,CLR,,0.00,WeatherDisplay:10.37,2013-06-28 00:12:00,
2013-06-27 20:18:00,67.8,53.4,29.74,SSW,202,1.2,1.2,60,0.00,CLR,,0.00,WeatherDisplay:10.37,2013-06-28 00:18:00,
2013-06-27 20:23:00,67.8,53.4,29.74,SSW,202,1.2,1.4,60,0.00,CLR,,0.00,WeatherDisplay:10.37,2013-06-28 00:23:00,
2013-06-27 20:29:00,67.8,53.4,29.74,South,180,1.2,1.2,60,0.00,CLR,,0.00,WeatherDisplay:10.37,2013-06-28 00:29:00,
2013-06-27 20:34:00,67.8,53.4,29.74,SSW,202,1.2,1.2,60,0.00,CLR,,0.00,WeatherDisplay:10.37,2013-06-28 00:34:00,
2013-06-27 20:39:00,67.8,53.0,29.74,South,180,1.2,1.2,59,0.00,CLR,,0.00,WeatherDisplay:10.37,2013-06-28 00:39:00,
2013-06-27 20:44:00,67.8,53.0,29.74,South,180,1.2,1.4,59,0.00,CLR,,0.00,WeatherDisplay:10.37,2013-06-28 00:44:00,
2013-06-27 20:49:00,68.0,53.1,29.74,South,180,1.2,1.2,59,0.00,CLR,,0.00,WeatherDisplay:10.37,2013-06-28 00:49:00,
2013-06-27 20:55:00,68.0,53.1,29.74,SSW,202,2.3,2.3,59,0.00,CLR,,0.00,WeatherDisplay:10.37,2013-06-28 00:55:00,
2013-06-27 21:01:00,68.2,53.3,29.74,SW,225,2.3,2.3,59,0.00,CLR,,0.00,WeatherDisplay:10.37,2013-06-28 01:01:00,
2013-06-27 21:06:00,68.4,53.0,29.74,SW,225,2.3,2.3,58,0.00,CLR,,0.00,WeatherDisplay:10.37,2013-06-28 01:06:00,
2013-06-27 21:11:00,68.4,53.0,29.74,SW,225,1.2,1.2,58,0.00,CLR,,0.00,WeatherDisplay:10.37,2013-06-28 01:11:00,
2013-06-27 21:16:00,68.4,53.0,29.75,South,180,3.5,3.5,58,0.00,CLR,,0.00,WeatherDisplay:10.37,2013-06-28 01:16:00,
2013-06-27 21:21:00,68.4,52.5,29.75,South,180,2.3,2.3,57,0.00,CLR,,0.00,WeatherDisplay:10.37,2013-06-28 01:21:00,
2013-06-27 21:27:00,68.4,52.5,29.75,South,180,4.6,4.7,57,0.00,CLR,,0.00,WeatherDisplay:10.37,2013-06-28 01:27:00,
2013-06-27 21:32:00,68.4,52.5,29.75,SSW,202,2.3,2.3,57,0.00,CLR,,0.00,WeatherDisplay:10.37,2013-06-28 01:32:00,
2013-06-27 21:37:00,68.4,52.5,29.76,SSW,202,2.3,2.3,57,0.00,CLR,,0.00,WeatherDisplay:10.37,2013-06-28 01:37:00,
2013-06-27 21:42:00,68.4,52.5,29.76,South,180,1.2,1.2,57,0.00,CLR,,0.00,WeatherDisplay:10.37,2013-06-28 01:42:00,
2013-06-27 21:47:00,68.2,52.4,29.76,SW,225,2.3,2.3,57,0.00,CLR,,0.00,WeatherDisplay:10.37,2013-06-28 01:47:00,
2013-06-27 21:53:00,68.2,52.4,29.76,SSW,202,2.3,2.6,57,0.00,CLR,,0.00,WeatherDisplay:10.37,2013-06-28 01:53:00,
2013-06-27 21:58:00,68.2,51.9,29.76,SSW,202,2.3,2.3,56,0.00,CLR,,0.00,WeatherDisplay:10.37,2013-06-28 01:58:00,
2013-06-27 22:03:00,68.2,51.9,29.75,SSE,158,2.3,2.3,56,0.00,CLR,,0.00,WeatherDisplay:10.37,2013-06-28 02:03:00,
2013-06-27 22:08:00,68.2,51.9,29.75,SSW,202,2.3,2.3,56,0.00,CLR,,0.00,WeatherDisplay:10.37,2013-06-28 02:08:00,
2013-06-27 22:13:00,68.4,52.0,29.75,SSW,202,3.5,3.5,56,0.00,CLR,,0.00,WeatherDisplay:10.37,2013-06-28 02:13:00,
2013-06-27 22:18:00,68.4,52.0,29.75,SW,225,4.6,4.9,56,0.00,CLR,,0.00,WeatherDisplay:10.37,2013-06-28 02:18:00,
2013-06-27 22:23:00,68.2,51.9,29.74,South,180,2.4,2.4,56,0.00,CLR,,0.00,WeatherDisplay:10.37,2013-06-28 02:23:00,
2013-06-27 22:29:00,68.2,51.9,29.74,SSW,202,2.3,2.4,56,0.00,CLR,,0.00,WeatherDisplay:10.37,2013-06-28 02:29:00,
2013-06-27 22:34:00,68.0,51.7,29.74,SE,135,3.5,3.6,56,0.00,CLR,,0.00,WeatherDisplay:10.37,2013-06-28 02:34:00,
2013-06-27 22:39:00,68.0,51.7,29.74,SSW,202,2.3,2.3,56,0.00,CLR,,0.00,WeatherDisplay:10.37,2013-06-28 02:39:00,
2013-06-27 22:44:00,68.0,51.7,29.74,South,180,5.8,5.8,56,0.00,CLR,,0.00,WeatherDisplay:10.37,2013-06-28 02:44:00,
2013-06-27 22:49:00,67.8,51.5,29.74,SSW,202,1.2,1.2,56,0.00,CLR,,0.00,WeatherDisplay:10.37,2013-06-28 02:49:00,
2013-06-27 22:54:00,67.8,51.5,29.74,SSW,202,2.3,2.6,56,0.00,CLR,,0.00,WeatherDisplay:10.37,2013-06-28 02:54:00,
2013-06-27 23:00:00,67.8,51.5,29.74,SSW,202,5.8,5.8,56,0.00,CLR,,0.00,WeatherDisplay:10.37,2013-06-28 03:00:00,
2013-06-27 23:05:00,67.8,51.5,29.75,SW,225,4.6,4.7,56,0.00,CLR,,0.00,WeatherDisplay:10.37,2013-06-28 03:05:00,
2013-06-27 23:11:00,68.0,51.7,29.75,SW,225,3.5,3.5,56,0.00,CLR,,0.00,WeatherDisplay:10.37,2013-06-28 03:11:00,
2013-06-27 23:16:00,68.0,51.2,29.74,SSW,202,2.3,2.3,55,0.00,CLR,,0.00,WeatherDisplay:10.37,2013-06-28 03:16:00,
2013-06-27 23:21:00,68.0,51.2,29.74,SSW,202,4.6,4.6,55,0.00,CLR,,0.00,WeatherDisplay:10.37,2013-06-28 03:21:00,
2013-06-27 23:26:00,68.0,51.2,29.74,SSW,202,2.3,2.3,55,0.00,CLR,,0.00,WeatherDisplay:10.37,2013-06-28 03:26:00,
2013-06-27 23:31:00,68.2,51.4,29.74,SW,225,3.5,3.5,55,0.00,CLR,,0.00,WeatherDisplay:10.37,2013-06-28 03:31:00,
2013-06-27 23:37:00,68.2,51.4,29.74,SSW,202,4.6,4.6,55,0.00,CLR,,0.00,WeatherDisplay:10.37,2013-06-28 03:37:00,
2013-06-27 23:42:00,68.2,51.4,29.74,SSE,158,4.6,4.6,55,0.00,CLR,,0.00,WeatherDisplay:10.37,2013-06-28 03:42:00,
2013-06-27 23:47:00,68.2,51.4,29.74,SSW,202,1.2,1.2,55,0.00,CLR,,0.00,WeatherDisplay:10.37,2013-06-28 03:47:00,
2013-06-27 23:52:00,68.4,51.6,29.74,SSW,202,2.3,2.3,55,0.00,CLR,,0.00,WeatherDisplay:10.37,2013-06-28 03:52:00,
2013-06-27 23:57:00,68.4,51.6,29.74,SSW,202,2.3,2.3,55,0.00,CLR,,0.00,WeatherDisplay:10.37,2013-06-28 03:57:00,